Location: Christchurch
(43.5330°S, 172.6330°E)
Time: 10:59:20
(UTC+12:00)

Cosmos 1763 Rocket - Pass Details

Date: 24 January 2019
Orbit: 732 x 781 km, 74.0° (Epoch: 19 April)

Event Time Altitude Azimuth Distance (km) Brightness Sun altitude
Rises 22:21:49 0° 204° (SSW) 3,274 8.1 -12.3°
Reaches altitude 10° 22:24:15 10° 207° (SSW) 2,333 7.2 -12.7°
Maximum altitude 22:29:27 61° 286° (WNW) 864 3.9 -13.4°
Enters shadow 22:34:10 12° 4° (N) 2,128 5.4 -14.0°
